Polokwane, South Africa

12:12 PM SAST on June 28, 2017 (GMT +0200)
Polokwane

Weather History for FAPP - December, 2012

Change the Weather History Date:

Saturday, December 1, 2012

  Actual Average Record
Temperature  
Mean Temperature 60 °F -  
Max Temperature 64 °F - - ()
Min Temperature 57 °F - - ()
Degree Days  
Heating Degree Days 4    
Growing Degree Days 10 (Base 50)    
Moisture  
Dew Point 52 °F    
Average Humidity 73    
Maximum Humidity 82    
Minimum Humidity 64    
Precipitation  
Precipitation 0.00 in - - ()
Sea Level Pressure  
Sea Level Pressure 30.19 in    
Wind  
Wind Speed 10 mph ()    
Max Wind Speed 15 mph    
Max Gust Speed 26 mph    
Visibility 6.0 miles    
Events      
T = Trace of Precipitation, MM = Missing Value Source: Averaged Metar Reports

Daily Weather History Graph

Daily Weather History Graph

Search for Another Location

Airport or City:

Trip Planner

Search our weather history database for the weather conditions in past years. The results will help you decide how hot, cold, wet, or windy it might be!

Date:

Astronomy

Dec. 01, 2012 Rise Set
Actual Time 5:06 AM SAST 6:36 PM SAST
Civil Twilight 4:41 AM SAST 7:01 PM SAST
Nautical Twilight 4:11 AM SAST 7:31 PM SAST
Astronomical Twilight 3:40 AM SAST 8:02 PM SAST
Moon 8:53 PM SAST (12/1) 7:15 AM SAST (12/1)
Length of Visible Light 14h 20m
Length of Day
13h 30m
Waning Gibbous, 93% of the Moon is Illuminated
Dec 1
Waning Gibbous
Dec 6
Last Quarter
Dec 13
New
Dec 20
First Quarter
Dec 28
Full

Hourly Weather History & Observations

Time (SAST) Temp. Dew Point Humidity Pressure Visibility Wind Dir Wind Speed Gust Speed Precip Events Conditions
12:00 AM 64.4 °F 51.8 °F 64% 30.12 in - East 11.5 mph - N/A   Unknown
1:00 AM 62.6 °F 51.8 °F 68% 30.12 in - East 13.8 mph - N/A   Unknown
2:00 AM 60.8 °F 51.8 °F 72% 30.12 in - East 13.8 mph 26.5 mph N/A   Unknown
3:00 AM 59.0 °F 51.8 °F 77% 30.12 in - East 10.4 mph - N/A   Unknown
4:00 AM 59.0 °F 50.0 °F 72% 30.15 in - East 9.2 mph - N/A   Unknown
5:00 AM 59.0 °F 50.0 °F 72% 30.15 in 6.2 mi East 8.1 mph - N/A   Overcast
6:00 AM 57.2 °F 50.0 °F 77% 30.18 in 6.2 mi East 11.5 mph - N/A   Overcast
7:00 AM 59.0 °F 50.0 °F 72% 30.21 in 6.2 mi ENE 13.8 mph - N/A   Overcast
8:00 AM 57.2 °F 51.8 °F 82% 30.24 in 6.2 mi NE 11.5 mph - N/A   Overcast
10:00 AM 60.8 °F 53.6 °F 77% 30.24 in 6.2 mi NE 15.0 mph - N/A   Overcast
11:00 AM 60.8 °F 51.8 °F 72% 30.24 in 6.2 mi NE 15.0 mph - N/A   Overcast
12:00 PM 62.6 °F 53.6 °F 72% 30.24 in 6.2 mi ENE 13.8 mph - N/A   Overcast
1:00 PM 62.6 °F 53.6 °F 72% 30.21 in 6.2 mi NE 15.0 mph - N/A   Overcast
2:00 PM 64.4 °F 51.8 °F 64% 30.18 in 6.2 mi NE 12.7 mph - N/A   Overcast
3:00 PM 64.4 °F 53.6 °F 68% 30.18 in 6.2 mi NE 11.5 mph - N/A   Overcast
5:00 PM 62.6 °F 51.8 °F 68% 30.18 in 6.2 mi ENE 9.2 mph - N/A   Mostly Cloudy
6:00 PM 60.8 °F 51.8 °F 72% 30.18 in 6.2 mi NE 9.2 mph - N/A   Mostly Cloudy
7:00 PM 59.0 °F 51.8 °F 77% 30.21 in 5.0 mi ENE 6.9 mph - N/A   Mostly Cloudy
8:00 PM 59.0 °F 51.8 °F 77% 30.21 in 5.0 mi NNE 3.5 mph - N/A   Mostly Cloudy
9:00 PM 60.8 °F 51.8 °F 72% 30.24 in - ENE 4.6 mph - N/A   Unknown
10:00 PM 59.0 °F 51.8 °F 77% 30.24 in - NE 4.6 mph - N/A   Unknown
11:00 PM 60.8 °F 51.8 °F 72% 30.24 in - East 5.8 mph - N/A   Unknown